| time (UTC) | temp C | wind direction | speed KPH | gust KPH | rain 1hr cm | rain 24hr cm | rain mn cm | humidity % | barometer mb |
| 20260831110003 | 16 | 146 | 0.0 | 3.2 | 0.00 | 0.18 | 0.00 | 59 | 1019.8 |
| 20260831105506 | 16 | 153 | 0.0 | 3.2 | 0.00 | 0.18 | 0.00 | 59 | 1019.9 |
| 20260831105007 | 16 | 153 | 0.0 | 3.2 | 0.00 | 0.18 | 0.00 | 58 | 1019.8 |
| 20260831104526 | 16 | 154 | 1.6 | 3.2 | 0.00 | 0.18 | 0.00 | 56 | 1019.7 |
| 20260831104007 | 16 | 205 | 0.0 | 3.2 | 0.00 | 0.18 | 0.00 | 61 | 1019.7 |
| 20260831103505 | 16 | 205 | 0.0 | 3.2 | 0.00 | 0.18 | 0.00 | 62 | 1019.7 |
| 20260831103008 | 16 | 104 | 0.0 | 3.2 | 0.00 | 0.18 | 0.00 | 63 | 1019.6 |
| 20260831102508 | 16 | 145 | 0.0 | 3.2 | 0.00 | 0.18 | 0.00 | 63 | 1019.7 |
| 20260831102005 | 16 | 108 | 0.0 | 3.2 | 0.00 | 0.18 | 0.00 | 65 | 1019.6 |
| 20260831101507 | 16 | 103 | 0.0 | 4.8 | 0.00 | 0.18 | 0.00 | 65 | 1019.6 |
| 20260831101005 | 16 | 117 | 0.0 | 4.8 | 0.00 | 0.18 | 0.00 | 66 | 1019.6 |
| 20260831100509 | 16 | 172 | 0.0 | 3.2 | 0.00 | 0.18 | 0.00 | 66 | 1019.6 |
| 20260831100009 | 16 | 172 | 0.0 | 3.2 | 0.00 | 0.18 | 0.00 | 65 | 1019.4 |
| 20260831095512 | 16 | 169 | 0.0 | 3.2 | 0.00 | 0.18 | 0.00 | 64 | 1019.3 |
| 20260831095007 | 16 | 168 | 0.0 | 3.2 | 0.00 | 0.18 | 0.00 | 65 | 1019.2 |
| 20260831094514 | 16 | 190 | 0.0 | 3.2 | 0.00 | 0.18 | 0.00 | 66 | 1019.2 |
| 20260831094004 | 16 | 199 | 0.0 | 3.2 | 0.00 | 0.18 | 0.00 | 66 | 1019.2 |
| 20260831093504 | 16 | 202 | 0.0 | 3.2 | 0.00 | 0.18 | 0.00 | 65 | 1019.1 |
| 20260831090004 | 17 | 215 | 0.0 | 3.2 | 0.00 | 0.18 | 0.00 | 62 | 1019.1 |
| 20260831085503 | 17 | 219 | 0.0 | 1.6 | 0.00 | 0.18 | 0.00 | 61 | 1019.1 |
| 20260831085006 | 17 | 187 | 0.0 | 3.2 | 0.00 | 0.18 | 0.00 | 61 | 1019.2 |
| 20260831084515 | 17 | 186 | 0.0 | 3.2 | 0.00 | 0.18 | 0.00 | 60 | 1019.2 |
| 20260831084007 | 17 | 192 | 0.0 | 3.2 | 0.00 | 0.18 | 0.00 | 59 | 1019.2 |
| 20260831083508 | 17 | 192 | 0.0 | 3.2 | 0.00 | 0.18 | 0.00 | 56 | 1019.3 |
| 20260831083014 | 18 | 188 | 0.0 | 3.2 | 0.00 | 0.18 | 0.00 | 56 | 1019.3 |
| 20260831082506 | 18 | 188 | 0.0 | 3.2 | 0.00 | 0.18 | 0.00 | 55 | 1019.4 |
| 20260831082003 | 18 | 188 | 0.0 | 3.2 | 0.00 | 0.18 | 0.00 | 54 | 1019.3 |
| 20260831081508 | 18 | 188 | 0.0 | 3.2 | 0.00 | 0.18 | 0.00 | 53 | 1019.4 |
| 20260831081010 | 19 | 188 | 0.0 | 3.2 | 0.00 | 0.18 | 0.00 | 51 | 1019.5 |
| 20260831080507 | 19 | 188 | 0.0 | 3.2 | 0.00 | 0.18 | 0.00 | 50 | 1019.5 |
| 20260831080018 | 20 | 185 | 0.0 | 3.2 | 0.00 | 0.18 | 0.00 | 48 | 1019.6 |
| 20260831075513 | 20 | 185 | 0.0 | 3.2 | 0.00 | 0.18 | 0.00 | 49 | 1019.6 |
| 20260831075007 | 20 | 185 | 0.0 | 3.2 | 0.00 | 0.18 | 0.00 | 48 | 1019.5 |
| 20260831074514 | 20 | 185 | 0.0 | 3.2 | 0.00 | 0.18 | 0.00 | 46 | 1019.6 |
| 20260831074006 | 20 | 164 | 0.0 | 1.6 | 0.00 | 0.18 | 0.00 | 46 | 1019.7 |
| 20260831073504 | 20 | 145 | 1.6 | 3.2 | 0.00 | 0.18 | 0.00 | 47 | 1019.8 |
| 20260831073011 | 20 | 155 | 1.6 | 3.2 | 0.00 | 0.18 | 0.00 | 46 | 1019.9 |
| 20260831072510 | 20 | 114 | 0.0 | 4.8 | 0.00 | 0.18 | 0.00 | 44 | 1019.9 |
| 20260831072008 | 20 | 186 | 0.0 | 4.8 | 0.00 | 0.18 | 0.00 | 44 | 1019.9 |
| 20260831071519 | 20 | 206 | 1.6 | 6.4 | 0.00 | 0.18 | 0.00 | 44 | 1019.9 |
| 20260831071005 | 20 | 275 | 1.6 | 6.4 | 0.00 | 0.18 | 0.00 | 44 | 1019.9 |
| 20260831070504 | 20 | 277 | 0.0 | 3.2 | 0.00 | 0.18 | 0.00 | 47 | 1019.9 |
| 20260831070007 | 20 | 285 | 0.0 | 3.2 | 0.00 | 0.18 | 0.00 | 46 | 1020.0 |
| 20260831065506 | 20 | 320 | 0.0 | 3.2 | 0.00 | 0.18 | 0.00 | 46 | 1020.1 |
| 20260831065008 | 20 | 302 | 0.0 | 4.8 | 0.00 | 0.18 | 0.00 | 49 | 1020.1 |
| 20260831064522 | 20 | 5 | 0.0 | 4.8 | 0.00 | 0.18 | 0.00 | 49 | 1019.9 |
| 20260831064010 | 20 | 342 | 1.6 | 3.2 | 0.00 | 0.18 | 0.00 | 50 | 1020.0 |
| 20260831063508 | 20 | 79 | 0.0 | 4.8 | 0.00 | 0.18 | 0.00 | 49 | 1020.1 |
| 20260831063004 | 20 | 57 | 1.6 | 4.8 | 0.00 | 0.18 | 0.00 | 48 | 1020.0 |
| 20260831062504 | 20 | 46 | 1.6 | 4.8 | 0.00 | 0.18 | 0.00 | 46 | 1020.0 |
| 20260831062005 | 20 | 36 | 0.0 | 3.2 | 0.00 | 0.18 | 0.00 | 47 | 1020.1 |
| 20260831061511 | 20 | 144 | 0.0 | 3.2 | 0.00 | 0.18 | 0.00 | 46 | 1020.1 |
| 20260831061014 | 21 | 105 | 0.0 | 3.2 | 0.00 | 0.18 | 0.00 | 45 | 1020.1 |
| 20260831060512 | 21 | 194 | 0.0 | 4.8 | 0.00 | 0.18 | 0.00 | 44 | 1020.1 |
| 20260831060021 | 21 | 298 | 1.6 | 8.0 | 0.00 | 0.18 | 0.00 | 44 | 1020.1 |
| 20260831055511 | 21 | 161 | 3.2 | 8.0 | 0.00 | 0.18 | 0.18 | 43 | 1020.1 |
| 20260831055003 | 21 | 334 | 1.6 | 16.1 | 0.00 | 0.18 | 0.18 | 43 | 1020.2 |
| 20260831054506 | 21 | 258 | 3.2 | 16.1 | 0.00 | 0.18 | 0.18 | 43 | 1020.2 |
| 20260831054004 | 21 | 232 | 4.8 | 19.3 | 0.00 | 0.18 | 0.18 | 43 | 1020.3 |
| 20260831053508 | 21 | 169 | 6.4 | 19.3 | 0.00 | 0.18 | 0.18 | 43 | 1020.3 |
| 20260831053014 | 21 | 154 | 4.8 | 16.1 | 0.00 | 0.18 | 0.18 | 42 | 1020.2 |
| 20260831052513 | 21 | 167 | 4.8 | 22.5 | 0.00 | 0.18 | 0.18 | 42 | 1020.4 |
| 20260831052011 | 21 | 205 | 3.2 | 22.5 | 0.00 | 0.18 | 0.18 | 42 | 1020.7 |
| 20260831051525 | 22 | 282 | 3.2 | 19.3 | 0.00 | 0.18 | 0.18 | 41 | 1021.0 |
| 20260831051003 | 22 | 246 | 4.8 | 19.3 | 0.00 | 0.18 | 0.18 | 41 | 1021.3 |
| 20260831050503 | 22 | 198 | 4.8 | 20.9 | 0.00 | 0.18 | 0.18 | 41 | 1021.3 |
| 20260831050013 | 22 | 350 | 8.0 | 22.5 | 0.00 | 0.18 | 0.18 | 40 | 1021.6 |
| 20260831045507 | 22 | 187 | 8.0 | 22.5 | 0.00 | 0.18 | 0.18 | 40 | 1021.7 |
| 20260831045008 | 23 | 192 | 9.7 | 29.0 | 0.00 | 0.18 | 0.18 | 41 | 1021.5 |
| 20260831044523 | 23 | 294 | 9.7 | 29.0 | 0.00 | 0.18 | 0.18 | 40 | 1021.6 |
| 20260831044011 | 23 | 194 | 8.0 | 29.0 | 0.00 | 0.18 | 0.18 | 40 | 1021.6 |
| 20260831043510 | 22 | 267 | 8.0 | 29.0 | 0.00 | 0.18 | 0.18 | 41 | 1021.6 |
| 20260831043004 | 21 | 346 | 8.0 | 27.4 | 0.00 | 0.18 | 0.18 | 43 | 1021.4 |
| 20260831042503 | 20 | 173 | 4.8 | 20.9 | 0.00 | 0.18 | 0.18 | 49 | 1021.3 |
| 20260831042007 | 18 | 248 | 4.8 | 12.9 | 0.00 | 0.18 | 0.18 | 56 | 1021.3 |
| 20260831041513 | 18 | 203 | 0.0 | 3.2 | 0.00 | 0.18 | 0.18 | 62 | 1021.1 |
| 20260831041012 | 18 | 207 | 0.0 | 3.2 | 0.00 | 0.18 | 0.18 | 63 | 1021.0 |
| 20260831040512 | 18 | 207 | 0.0 | 3.2 | 0.00 | 0.18 | 0.18 | 63 | 1020.7 |
| 20260831040021 | 18 | 207 | 0.0 | 3.2 | 0.00 | 0.18 | 0.18 | 62 | 1020.5 |
| 20260831035511 | 18 | 207 | 0.0 | 3.2 | 0.00 | 0.18 | 0.18 | 62 | 1020.4 |
| 20260831035003 | 18 | 207 | 0.0 | 3.2 | 0.00 | 0.18 | 0.18 | 1020.3 | |
| 20260831034507 | 18 | 207 | 0.0 | 3.2 | 0.00 | 0.18 | 0.18 | 1020.3 | |
| 20260831034007 | 18 | 220 | 0.0 | 3.2 | 0.00 | 0.18 | 0.18 | 1020.2 | |
| 20260831033511 | 18 | 98 | 0.0 | 3.2 | 0.00 | 0.18 | 0.18 | 1020.2 | |
| 20260831033020 | 19 | 98 | 0.0 | 3.2 | 0.00 | 0.18 | 0.18 | 61 | 1020.3 |
| 20260831032510 | 19 | 115 | 0.0 | 3.2 | 0.00 | 0.18 | 0.18 | 61 | 1020.3 |
| 20260831032012 | 19 | 115 | 0.0 | 3.2 | 0.00 | 0.18 | 0.18 | 59 | 1020.3 |
| 20260831031530 | 19 | 115 | 0.0 | 3.2 | 0.00 | 0.18 | 0.18 | 60 | 1020.2 |
| 20260831031003 | 19 | 119 | 0.0 | 3.2 | 0.00 | 0.18 | 0.18 | 1020.2 | |
| 20260831030506 | 19 | 139 | 0.0 | 3.2 | 0.00 | 0.18 | 0.18 | 1020.1 | |
| 20260831030010 | 19 | 175 | 0.0 | 3.2 | 0.00 | 0.18 | 0.18 | 1020.1 | |
| 20260831025510 | 19 | 111 | 0.0 | 3.2 | 0.00 | 0.18 | 0.18 | 1020.0 | |
| 20260831025011 | 19 | 117 | 0.0 | 3.2 | 0.00 | 0.18 | 0.18 | 1019.9 | |
| 20260831024526 | 19 | 107 | 1.6 | 3.2 | 0.00 | 0.18 | 0.18 | 1019.9 | |
| 20260831024014 | 19 | 103 | 1.6 | 3.2 | 0.00 | 0.18 | 0.18 | 59 | 1019.8 |
| 20260831023516 | 20 | 49 | 0.0 | 3.2 | 0.00 | 0.18 | 0.18 | 59 | 1019.8 |
| 20260831023005 | 20 | 92 | 0.0 | 3.2 | 0.00 | 0.18 | 0.18 | 59 | 1019.8 |
| 20260831022506 | 20 | 51 | 0.0 | 3.2 | 0.00 | 0.18 | 0.18 | 58 | 1019.8 |
| 20260831022006 | 20 | 104 | 0.0 | 3.2 | 0.00 | 0.18 | 0.18 | 57 | 1019.7 |
| 20260831021516 | 20 | 112 | 0.0 | 3.2 | 0.00 | 0.18 | 0.18 | 57 | 1019.5 |
| 20260831021012 | 20 | 132 | 0.0 | 9.7 | 0.00 | 0.18 | 0.18 | 57 | 1019.4 |
| 20260831020514 | 20 | 352 | 0.0 | 9.7 | 0.00 | 0.18 | 0.18 | 57 | 1019.4 |
| 20260831020027 | 20 | 119 | 0.0 | 3.2 | 0.00 | 0.18 | 0.18 | 57 | 1019.4 |
| 20260831015517 | 20 | 94 | 0.0 | 3.2 | 0.00 | 0.18 | 0.18 | 55 | 1019.4 |
| 20260831015005 | 21 | 33 | 0.0 | 3.2 | 0.00 | 0.18 | 0.18 | 55 | 1019.4 |
| 20260831014510 | 21 | 33 | 0.0 | 3.2 | 0.00 | 0.18 | 0.18 | 54 | 1019.4 |
| 20260831014010 | 21 | 69 | 0.0 | 3.2 | 0.00 | 0.18 | 0.18 | 53 | 1019.4 |
| 20260831013512 | 21 | 109 | 0.0 | 3.2 | 0.00 | 0.18 | 0.18 | 51 | 1019.4 |
| 20260831013038 | 21 | 109 | 0.0 | 3.2 | 0.00 | 0.18 | 0.18 | 50 | 1019.3 |
| 20260831012513 | 22 | 167 | 0.0 | 3.2 | 0.00 | 0.18 | 0.18 | 49 | 1019.3 |
| 20260831012012 | 22 | 231 | 1.6 | 3.2 | 0.00 | 0.18 | 0.18 | 49 | 1019.3 |
| 20260831011526 | 22 | 34 | 0.0 | 3.2 | 0.00 | 0.18 | 0.18 | 47 | 1019.1 |
| 20260831011003 | 22 | 150 | 0.0 | 3.2 | 0.00 | 0.18 | 0.18 | 46 | 1019.2 |
| 20260831010508 | 23 | 213 | 1.6 | 3.2 | 0.00 | 0.18 | 0.18 | 44 | 1019.2 |
| 20260831010017 | 23 | 60 | 0.0 | 12.9 | 0.00 | 0.18 | 0.18 | 43 | 1019.0 |
| 20260831005513 | 23 | 34 | 3.2 | 12.9 | 0.00 | 0.18 | 0.18 | 42 | 1019.1 |
| 20260831005015 | 24 | 350 | 1.6 | 8.0 | 0.00 | 0.18 | 0.18 | 40 | 1019.0 |
| 20260831004527 | 24 | 232 | 0.0 | 8.0 | 0.00 | 0.18 | 0.18 | 40 | 1019.1 |
| 20260831004016 | 24 | 213 | 0.0 | 16.1 | 0.00 | 0.18 | 0.18 | 41 | 1019.1 |
| 20260831003517 | 25 | 165 | 3.2 | 16.1 | 0.00 | 0.18 | 0.18 | 37 | 1019.2 |
| 20260831003027 | 25 | 179 | 3.2 | 8.0 | 0.00 | 0.18 | 0.18 | 39 | 1019.2 |
| 20260831002514 | 25 | 144 | 3.2 | 12.9 | 0.00 | 0.18 | 0.18 | 38 | 1019.3 |
| 20260831002014 | 26 | 161 | 1.6 | 12.9 | 0.00 | 0.18 | 0.18 | 35 | 1019.3 |
| 20260831001525 | 26 | 167 | 1.6 | 8.0 | 0.00 | 0.18 | 0.18 | 35 | 1019.2 |
| 20260831001016 | 26 | 262 | 1.6 | 11.3 | 0.00 | 0.18 | 0.18 | 35 | 1019.3 |
| 20260831000516 | 26 | 263 | 3.2 | 11.3 | 0.00 | 0.18 | 0.18 | 35 | 1019.4 |
| 20260831000026 | 26 | 57 | 0.0 | 8.0 | 0.00 | 0.18 | 0.18 | 34 | 1019.2 |
| 20260830235515 | 26 | 211 | 1.6 | 19.3 | 0.00 | 0.18 | 0.18 | 35 | 1019.1 |
| 20260830235014 | 26 | 221 | 3.2 | 19.3 | 0.00 | 0.18 | 0.18 | 35 | 1018.9 |
| 20260830234528 | 26 | 204 | 9.7 | 22.5 | 0.00 | 0.18 | 0.18 | 34 | 1018.8 |
| 20260830234010 | 26 | 194 | 8.0 | 22.5 | 0.00 | 0.18 | 0.18 | 34 | 1019.0 |
| 20260830233513 | 27 | 255 | 6.4 | 20.9 | 0.00 | 0.18 | 0.18 | 33 | 1019.0 |
| 20260830233024 | 26 | 184 | 6.4 | 20.9 | 0.00 | 0.18 | 0.18 | 35 | 1018.9 |
| 20260830232516 | 26 | 188 | 6.4 | 22.5 | 0.00 | 0.18 | 0.18 | 34 | 1018.9 |
| 20260830232014 | 25 | 173 | 6.4 | 22.5 | 0.00 | 0.18 | 0.18 | 35 | 1018.8 |
| 20260830231532 | 25 | 227 | 3.2 | 16.1 | 0.00 | 0.18 | 0.18 | 36 | 1018.9 |
| 20260830231017 | 25 | 209 | 6.4 | 19.3 | 0.00 | 0.18 | 0.18 | 35 | 1018.8 |
| 20260830230516 | 25 | 191 | 6.4 | 24.1 | 0.00 | 0.18 | 0.18 | 36 | 1018.7 |
| 20260830230020 | 25 | 255 | 4.8 | 27.4 | 0.00 | 0.18 | 0.18 | 36 | 1018.7 |
| 20260830225511 | 25 | 217 | 8.0 | 27.4 | 0.00 | 0.18 | 0.18 | 37 | 1018.6 |
| 20260830225015 | 24 | 215 | 8.0 | 20.9 | 0.00 | 0.18 | 0.18 | 37 | 1018.7 |
| 20260830224528 | 24 | 225 | 6.4 | 20.9 | 0.00 | 0.18 | 0.18 | 38 | 1018.7 |
| 20260830224019 | 24 | 199 | 6.4 | 19.3 | 0.00 | 0.18 | 0.18 | 38 | 1018.8 |
| 20260830223515 | 23 | 190 | 6.4 | 19.3 | 0.00 | 0.18 | 0.18 | 38 | 1018.9 |
| 20260830223027 | 23 | 267 | 8.0 | 19.3 | 0.00 | 0.18 | 0.18 | 39 | 1018.9 |
| 20260830222513 | 23 | 221 | 1.6 | 29.0 | 0.00 | 0.18 | 0.18 | 40 | 1019.0 |
| 20260830222011 | 23 | 242 | 3.2 | 29.0 | 0.00 | 0.18 | 0.18 | 39 | 1019.1 |
| 20260830221524 | 23 | 231 | 11.3 | 27.4 | 0.00 | 0.18 | 0.18 | 39 | 1019.2 |
| 20260830221013 | 23 | 161 | 6.4 | 22.5 | 0.00 | 0.18 | 0.18 | 41 | 1019.2 |
| 20260830220515 | 23 | 235 | 3.2 | 9.7 | 0.00 | 0.18 | 0.18 | 40 | 1019.4 |
| 20260830220036 | 23 | 269 | 3.2 | 17.7 | 0.00 | 0.18 | 0.18 | 41 | 1019.4 |
| 20260830215517 | 22 | 234 | 6.4 | 17.7 | 0.00 | 0.18 | 0.18 | 41 | 1019.4 |
| 20260830215014 | 22 | 228 | 1.6 | 20.9 | 0.00 | 0.18 | 0.18 | 44 | 1019.8 |
| 20260830214529 | 22 | 251 | 6.4 | 22.5 | 0.00 | 0.18 | 0.18 | 43 | 1019.6 |
| 20260830214011 | 22 | 231 | 8.0 | 25.7 | 0.00 | 0.18 | 0.18 | 43 | 1019.9 |
| 20260830213503 | 22 | 167 | 11.3 | 25.7 | 0.00 | 0.18 | 0.18 | 44 | 1020.1 |
| 20260830213003 | 21 | 223 | 3.2 | 25.7 | 0.00 | 0.18 | 0.18 | 46 | 1020.1 |
| 20260830212504 | 21 | 242 | 8.0 | 25.7 | 0.03 | 0.18 | 0.18 | 45 | 1020.3 |
| 20260830212003 | 21 | 300 | 6.4 | 20.9 | 0.03 | 0.18 | 0.18 | 48 | 1020.3 |
| 20260830211512 | 21 | 323 | 4.8 | 20.9 | 0.15 | 0.18 | 0.18 | 54 | 1020.5 |
| 20260830211010 | 20 | 255 | 3.2 | 17.7 | 0.15 | 0.23 | 0.18 | 55 | 1020.5 |
| 20260830210509 | 19 | 323 | 6.4 | 17.7 | 0.15 | 0.28 | 0.18 | 59 | 1020.4 |
| 20260830210003 | 18 | 136 | 3.2 | 14.5 | 0.15 | 0.28 | 0.18 | 66 | 1020.6 |
| 20260830205502 | 18 | 65 | 1.6 | 8.0 | 0.15 | 0.28 | 0.18 | 71 | 1020.6 |
| 20260830205002 | 17 | 326 | 1.6 | 4.8 | 0.15 | 0.28 | 0.18 | 71 | 1020.8 |
| 20260830204504 | 17 | 247 | 0.0 | 3.2 | 0.15 | 0.28 | 0.18 | 74 | 1020.8 |
| 20260830204004 | 17 | 251 | 1.6 | 6.4 | 0.15 | 0.28 | 0.18 | 71 | 1020.9 |
| 20260830203504 | 18 | 110 | 0.0 | 19.3 | 0.15 | 0.28 | 0.18 | 69 | 1020.9 |
| 20260830203023 | 18 | 305 | 1.6 | 20.9 | 0.15 | 0.28 | 0.18 | 67 | 1020.8 |
| 20260830202510 | 20 | 298 | 9.7 | 20.9 | 0.13 | 0.25 | 0.15 | 60 | 1021.3 |
| 20260830202003 | 21 | 219 | 6.4 | 20.9 | 0.15 | 0.25 | 0.15 | 61 | 1021.0 |
| 20260830201505 | 23 | 253 | 4.8 | 14.5 | 0.03 | 0.13 | 0.03 | 58 | 1020.9 |
| 20260830201005 | 23 | 251 | 0.0 | 3.2 | 0.03 | 0.13 | 0.03 | 58 | 1020.3 |
| 20260830200504 | 22 | 329 | 0.0 | 3.2 | 0.03 | 0.13 | 0.03 | 58 | 1019.9 |
| 20260830200007 | 22 | 352 | 0.0 | 3.2 | 0.03 | 0.13 | 0.03 | 60 | 1019.6 |
| 20260830195507 | 22 | 338 | 0.0 | 3.2 | 0.03 | 0.13 | 0.03 | 65 | 1019.4 |
| 20260830195012 | 22 | 97 | 0.0 | 3.2 | 0.03 | 0.13 | 0.03 | 63 | 1019.1 |
| 20260830194523 | 22 | 97 | 0.0 | 3.2 | 0.03 | 0.13 | 0.03 | 65 | 1018.9 |
| 20260830194004 | 22 | 61 | 0.0 | 3.2 | 0.03 | 0.13 | 0.03 | 61 | 1018.7 |
| 20260830193504 | 23 | 257 | 0.0 | 8.0 | 0.03 | 0.13 | 0.03 | 61 | 1018.7 |
| 20260830193005 | 23 | 255 | 0.0 | 12.9 | 0.03 | 0.13 | 0.03 | 57 | 1018.5 |
| 20260830192504 | 25 | 40 | 6.4 | 16.1 | 0.03 | 0.13 | 0.03 | 46 | 1018.4 |
| 20260830192008 | 27 | 9 | 4.8 | 16.1 | 0.00 | 0.10 | 0.00 | 41 | 1018.4 |
| 20260830191515 | 28 | 247 | 0.0 | 3.2 | 0.00 | 0.10 | 0.00 | 35 | 1018.2 |
| 20260830191012 | 28 | 83 | 1.6 | 4.8 | 0.00 | 0.10 | 0.00 | 33 | 1017.8 |
| 20260830190516 | 28 | 187 | 1.6 | 9.7 | 0.00 | 0.10 | 0.00 | 33 | 1017.5 |
| 20260830190004 | 28 | 109 | 4.8 | 9.7 | 0.00 | 0.10 | 0.00 | 32 | 1017.4 |
| 20260830185504 | 28 | 207 | 1.6 | 11.3 | 0.00 | 0.10 | 0.00 | 33 | 1017.3 |
| 20260830185004 | 28 | 155 | 3.2 | 11.3 | 0.00 | 0.10 | 0.00 | 34 | 1017.2 |
| 20260830184508 | 28 | 155 | 3.2 | 14.5 | 0.00 | 0.10 | 0.00 | 34 | 1017.4 |
| 20260830184007 | 28 | 94 | 1.6 | 14.5 | 0.00 | 0.10 | 0.00 | 33 | 1017.4 |
| 20260830183507 | 28 | 140 | 3.2 | 12.9 | 0.00 | 0.10 | 0.00 | 33 | 1017.5 |
| 20260830183021 | 28 | 121 | 3.2 | 9.7 | 0.00 | 0.10 | 0.00 | 32 | 1017.7 |
| 20260830182514 | 28 | 123 | 1.6 | 6.4 | 0.00 | 0.10 | 0.00 | 31 | 1017.7 |
| 20260830182016 | 28 | 146 | 1.6 | 6.4 | 0.00 | 0.10 | 0.00 | 32 | 1017.7 |
| 20260830181531 | 28 | 116 | 1.6 | 6.4 | 0.00 | 0.10 | 0.00 | 33 | 1017.8 |
| 20260830181019 | 28 | 105 | 1.6 | 6.4 | 0.00 | 0.10 | 0.00 | 33 | 1017.9 |
| 20260830180503 | 28 | 148 | 1.6 | 4.8 | 0.00 | 0.10 | 0.00 | 34 | 1017.9 |
| 20260830180012 | 28 | 101 | 0.0 | 4.8 | 0.00 | 0.10 | 0.00 | 34 | 1018.1 |
| 20260830175509 | 28 | 72 | 1.6 | 4.8 | 0.00 | 0.10 | 0.00 | 34 | 1018.1 |
| 20260830175010 | 28 | 157 | 1.6 | 4.8 | 0.00 | 0.10 | 0.00 | 32 | 1018.2 |
| 20260830174530 | 28 | 182 | 1.6 | 3.2 | 0.00 | 0.10 | 0.00 | 33 | 1018.3 |
| 20260830174016 | 28 | 351 | 1.6 | 3.2 | 0.00 | 0.10 | 0.00 | 32 | 1018.4 |
| 20260830173520 | 28 | 199 | 0.0 | 4.8 | 0.00 | 0.10 | 0.00 | 33 | 1018.4 |
| 20260830173050 | 27 | 9 | 0.0 | 4.8 | 0.00 | 0.10 | 0.00 | 34 | 1018.4 |
| 20260830172506 | 27 | 295 | 0.0 | 6.4 | 0.00 | 0.10 | 0.00 | 33 | 1018.5 |
| 20260830172008 | 27 | 226 | 0.0 | 6.4 | 0.00 | 0.10 | 0.00 | 35 | 1018.5 |
| 20260830171518 | 26 | 189 | 1.6 | 8.0 | 0.00 | 0.10 | 0.00 | 34 | 1018.5 |
| 20260830171012 | 26 | 96 | 1.6 | 11.3 | 0.00 | 0.10 | 0.00 | 35 | 1018.5 |
| 20260830170516 | 26 | 22 | 3.2 | 11.3 | 0.00 | 0.10 | 0.00 | 35 | 1018.5 |
| 20260830170030 | 26 | 265 | 3.2 | 8.0 | 0.00 | 0.10 | 0.00 | 34 | 1018.6 |
| 20260830165515 | 26 | 325 | 3.2 | 11.3 | 0.00 | 0.10 | 0.00 | 35 | 1018.7 |
| 20260830165020 | 26 | 348 | 3.2 | 11.3 | 0.00 | 0.10 | 0.00 | 35 | 1018.8 |
| 20260830164515 | 26 | 333 | 1.6 | 12.9 | 0.00 | 0.10 | 0.00 | 35 | 1018.8 |
| 20260830164010 | 26 | 222 | 3.2 | 12.9 | 0.00 | 0.10 | 0.00 | 36 | 1018.9 |
| 20260830163510 | 25 | 285 | 1.6 | 6.4 | 0.00 | 0.10 | 0.00 | 37 | 1018.9 |
| 20260830163024 | 25 | 290 | 1.6 | 12.9 | 0.00 | 0.10 | 0.00 | 37 | 1019.0 |
| 20260830162514 | 25 | 306 | 3.2 | 16.1 | 0.00 | 0.10 | 0.00 | 38 | 1019.0 |
| 20260830162016 | 24 | 342 | 4.8 | 16.1 | 0.00 | 0.10 | 0.00 | 38 | 1019.1 |
| 20260830161543 | 24 | 267 | 3.2 | 16.1 | 0.00 | 0.10 | 0.00 | 40 | 1019.2 |
| 20260830161017 | 24 | 228 | 3.2 | 14.5 | 0.00 | 0.10 | 0.00 | 40 | 1019.3 |
| 20260830160508 | 24 | 213 | 4.8 | 12.9 | 0.00 | 0.10 | 0.00 | 40 | 1019.5 |
| 20260830160018 | 23 | 169 | 1.6 | 17.7 | 0.00 | 0.10 | 0.00 | 39 | 1019.5 |
| 20260830155512 | 23 | 77 | 3.2 | 17.7 | 0.00 | 0.10 | 0.00 | 39 | 1019.6 |
| 20260830155017 | 23 | 233 | 6.4 | 16.1 | 0.00 | 0.10 | 0.00 | 40 | 1019.7 |
| 20260830154526 | 23 | 248 | 3.2 | 16.1 | 0.00 | 0.10 | 0.00 | 40 | 1019.7 |
| 20260830154017 | 23 | 268 | 4.8 | 17.7 | 0.00 | 0.10 | 0.00 | 40 | 1019.5 |
| 20260830153517 | 23 | 213 | 3.2 | 17.7 | 0.00 | 0.10 | 0.00 | 40 | 1019.6 |
| 20260830153011 | 23 | 277 | 4.8 | 22.5 | 0.00 | 0.10 | 0.00 | 40 | 1019.6 |
| 20260830152508 | 23 | 252 | 9.7 | 22.5 | 0.00 | 0.10 | 0.00 | 40 | 1019.6 |
| 20260830152009 | 23 | 299 | 3.2 | 14.5 | 0.00 | 0.10 | 0.00 | 42 | 1019.6 |
| 20260830151523 | 22 | 331 | 3.2 | 12.9 | 0.00 | 0.10 | 0.00 | 43 | 1019.6 |
| 20260830151011 | 22 | 169 | 3.2 | 19.3 | 0.00 | 0.10 | 0.00 | 46 | 1019.7 |
| 20260830150517 | 21 | 236 | 4.8 | 19.3 | 0.00 | 0.10 | 0.00 | 49 | 1019.8 |
| 20260830150031 | 20 | 180 | 3.2 | 4.8 | 0.00 | 0.10 | 0.00 | 53 | 1019.9 |
| 20260830145518 | 20 | 192 | 0.0 | 8.0 | 0.00 | 0.10 | 0.00 | 55 | 1019.8 |
| 20260830145006 | 19 | 182 | 1.6 | 8.0 | 0.00 | 0.10 | 0.00 | 58 | 1019.8 |
| 20260830144516 | 19 | 263 | 0.0 | 4.8 | 0.00 | 0.10 | 0.00 | 64 | 1019.6 |
| 20260830144013 | 18 | 268 | 0.0 | 4.8 | 0.00 | 0.10 | 0.00 | 66 | 1019.3 |
| 20260830143513 | 18 | 135 | 0.0 | 3.2 | 0.00 | 0.10 | 0.00 | 66 | 1019.4 |
| 20260830143026 | 18 | 107 | 0.0 | 3.2 | 0.00 | 0.10 | 0.00 | 66 | 1019.2 |
| 20260830142518 | 18 | 107 | 0.0 | 3.2 | 0.00 | 0.10 | 0.00 | 66 | 1019.0 |
| 20260830142019 | 18 | 107 | 0.0 | 3.2 | 0.00 | 0.10 | 0.00 | 66 | 1019.1 |
| 20260830141535 | 18 | 107 | 0.0 | 3.2 | 0.00 | 0.10 | 0.00 | 67 | 1018.9 |
| 20260830141008 | 18 | 195 | 0.0 | 3.2 | 0.00 | 0.10 | 0.00 | 66 | 1019.0 |
| 20260830140507 | 17 | 195 | 0.0 | 3.2 | 0.00 | 0.10 | 0.00 | 67 | 1019.2 |
| 20260830140021 | 17 | 195 | 0.0 | 3.2 | 0.00 | 0.10 | 0.00 | 67 | 1019.2 |
| 20260830135514 | 17 | 197 | 0.0 | 4.8 | 0.00 | 0.10 | 0.00 | 66 | 1019.4 |
| 20260830135013 | 17 | 261 | 1.6 | 4.8 | 0.00 | 0.10 | 0.00 | 65 | 1019.2 |
| 20260830134537 | 17 | 352 | 0.0 | 3.2 | 0.00 | 0.10 | 0.00 | 67 | 1019.1 |
| 20260830134014 | 17 | 352 | 0.0 | 3.2 | 0.00 | 0.10 | 0.00 | 68 | 1018.9 |
| 20260830133520 | 17 | 352 | 0.0 | 3.2 | 0.00 | 0.10 | 0.00 | 67 | 1019.1 |
| 20260830133032 | 16 | 352 | 0.0 | 3.2 | 0.00 | 0.10 | 0.00 | 66 | 1019.2 |
| 20260830132508 | 16 | 90 | 0.0 | 3.2 | 0.00 | 0.10 | 0.00 | 66 | 1019.1 |
| 20260830132014 | 16 | 97 | 0.0 | 3.2 | 0.00 | 0.10 | 0.00 | 66 | 1019.0 |
| 20260830131527 | 16 | 97 | 0.0 | 3.2 | 0.00 | 0.10 | 0.00 | 66 | 1018.9 |
| 20260830131019 | 16 | 97 | 0.0 | 3.2 | 0.00 | 0.10 | 0.00 | 65 | 1018.9 |
| 20260830130518 | 16 | 193 | 0.0 | 4.8 | 0.00 | 0.10 | 0.00 | 65 | 1018.9 |
| 20260830130035 | 16 | 193 | 0.0 | 4.8 | 0.00 | 0.10 | 0.00 | 66 | 1018.8 |
| 20260830125517 | 16 | 245 | 0.0 | 3.2 | 0.00 | 0.10 | 0.00 | 66 | 1018.9 |
| 20260830125020 | 16 | 205 | 0.0 | 3.2 | 0.00 | 0.10 | 0.00 | 65 | 1018.8 |
| 20260830124515 | 16 | 206 | 0.0 | 3.2 | 0.00 | 0.10 | 0.00 | 64 | 1018.8 |
| 20260830124011 | 16 | 193 | 0.0 | 3.2 | 0.00 | 0.10 | 0.00 | 64 | 1018.7 |
| 20260830123504 | 16 | 197 | 0.0 | 3.2 | 0.00 | 0.10 | 0.00 | 65 | 1018.7 |
| 20260830123004 | 16 | 197 | 0.0 | 3.2 | 0.00 | 0.10 | 0.00 | 64 | 1018.5 |
| 20260830122504 | 16 | 197 | 0.0 | 3.2 | 0.00 | 0.10 | 0.00 | 65 | 1018.5 |
| 20260830122004 | 16 | 117 | 0.0 | 3.2 | 0.00 | 0.10 | 0.00 | 65 | 1018.4 |
| 20260830121514 | 16 | 116 | 0.0 | 3.2 | 0.00 | 0.10 | 0.00 | 64 | 1018.2 |
| 20260830121007 | 16 | 118 | 0.0 | 3.2 | 0.00 | 0.10 | 0.00 | 64 | 1018.2 |
| 20260830120511 | 16 | 170 | 0.0 | 3.2 | 0.00 | 0.10 | 0.00 | 64 | 1018.2 |
| 20260830120024 | 16 | 170 | 0.0 | 3.2 | 0.00 | 0.10 | 0.00 | 63 | 1018.1 |
| 20260830115504 | 16 | 189 | 1.6 | 3.2 | 0.00 | 0.10 | 0.00 | 64 | 1018.2 |
| 20260830115004 | 16 | 160 | 0.0 | 3.2 | 0.00 | 0.10 | 0.00 | 63 | 1018.1 |
| 20260830114505 | 17 | 160 | 0.0 | 3.2 | 0.00 | 0.10 | 0.00 | 63 | 1018.1 |
| 20260830114008 | 17 | 160 | 0.0 | 1.6 | 0.00 | 0.10 | 0.00 | 62 | 1018.0 |
| 20260830113507 | 17 | 160 | 0.0 | 3.2 | 0.00 | 0.10 | 0.00 | 61 | 1018.0 |
| 20260830113019 | 17 | 160 | 0.0 | 3.2 | 0.00 | 0.10 | 0.00 | 62 | 1018.0 |
| 20260830112512 | 17 | 128 | 0.0 | 3.2 | 0.00 | 0.10 | 0.00 | 60 | 1018.0 |
| 20260830112013 | 17 | 128 | 0.0 | 3.2 | 0.00 | 0.10 | 0.00 | 60 | 1017.9 |
| 20260830111504 | 17 | 232 | 0.0 | 4.8 | 0.00 | 0.10 | 0.00 | 57 | 1018.0 |
| 20260830111004 | 17 | 224 | 0.0 | 4.8 | 0.00 | 0.10 | 0.00 | 57 | 1017.8 |